This demonstration page uses our WeatherBlox Daily Observations layout. Learn more.

36.19886, -115.1175

Hourly Observations for June 27, 2018

Temp ( °F °C ) Dew Point ( °F °C ) Humidity (%) Winds ( mph kmh ) Pressure ( in mb ) Visibility ( mi km ) Precip ( " mm )
12:53 am 00:53 Clear 89 31.7 26 -3.3 10 10 Calm 29.77 1008 10 16.09344 0 0
1:53 am 01:53 Clear 85 29.4 28 -2.2 13 13 WNW 3 6 29.77 1008 10 16.09344 0 0
2:53 am 02:53 Clear 82 27.8 28 -2.2 14 14 N 3 6 29.77 1008 10 16.09344 0 0
3:53 am 03:53 Clear 81 27.2 26 -3.3 13 13 NNW 5 7 29.77 1008 10 16.09344 0 0
4:53 am 04:53 Clear 80 26.7 27 -2.8 14 14 N 7 11 29.77 1008 10 16.09344 0 0
5:53 am 05:53 Sunny 78 25.6 29 -1.7 16 16 N 6 9 29.8 1009 10 16.09344 0 0
6:53 am 06:53 Sunny 83 28.3 28 -2.2 13 13 N 6 9 29.8 1009 10 16.09344 0 0
7:53 am 07:53 Sunny 88 31.1 24 -4.4 10 10 ENE 3 6 29.83 1010 10 16.09344 0 0
8:53 am 08:53 Sunny 89 31.7 27 -2.8 11 11 SE 7 11 29.83 1010 10 16.09344 0 0
9:53 am 09:53 Sunny 93 33.9 29 -1.7 10 10 ESE 7 11 29.83 1010 10 16.09344 0 0
10:53 am 10:53 Sunny 97 36.1 24 -4.4 7 7 ESE 12 19 29.83 1010 10 16.09344 0 0
11:53 am 11:53 Sunny 100 37.8 23 -5 6 6 SE 8 13 29.8 1009 10 16.09344 0 0
12:53 pm 12:53 Sunny 103 39.4 13 -10.6 4 4 S 9 15 29.77 1008 10 16.09344 0 0
1:53 pm 13:53 Sunny 104 40 15 -9.4 4 4 N 5 7 29.77 1008 10 16.09344 0 0
2:53 pm 14:53 Sunny 105 40.6 16 -8.9 4 4 S 7 11 29.74 1007 10 16.09344 0 0
3:53 pm 15:53 Sunny 106 41.1 20 -6.7 5 5 SSW 13 20 29.71 1006 10 16.09344 0 0
4:53 pm 16:53 Sunny 106 41.1 18 -7.8 4 4 SW 13 20 29.68 1005 10 16.09344 0 0
5:53 pm 17:53 Sunny 106 41.1 15 -9.4 4 4 SSW 17 28 29.68 1005 10 16.09344 0 0
6:53 pm 18:53 Sunny 103 39.4 11 -11.7 3 3 SSW 14 22 29.68 1005 10 16.09344 0 0
7:53 pm 19:53 Sunny 101 38.3 18 -7.8 5 5 SW 10 17 29.68 1005 10 16.09344 0 0
8:53 pm 20:53 Clear 99 37.2 20 -6.7 6 6 SW 9 15 29.68 1005 10 16.09344 0 0
9:53 pm 21:53 Clear 96 35.6 22 -5.6 7 7 SSW 8 13 29.71 1006 10 16.09344 0 0
10:53 pm 22:53 Clear 94 34.4 20 -6.7 7 7 SW 9 15 29.71 1006 10 16.09344 0 0
11:53 pm 23:53 Clear 93 33.9 26 -3.3 9 9 W 12 19 29.71 1006 10 16.09344 0 0

Powered by AerisWeather